GEC8431 EDDF-HAAB

Flight info

Callsign GEC8431
Flight time N/A
Altitude 31000
Route CINDY8S CINDY Z74 LAMPU DCT NOMBO Y161 MAH DCT VAVOR DCT RADIZ DCT VILAK DCT DOL DCT NIVES DCT VRANA DCT DIMIS DCT SALUN/N0487F330 N705 BOPIX N710 TAKRI P751 TOMRU DCT KSL/N0494F340 DCT ALRAP/N0492F350 T124 AMUDO AMUDO1A
Aircraft B77L/H-SDE1E2E3FGHIJ2J3J4J5M1RWXY/LB1D1

Departure

Time 2026-05-06 07:23
Airport Frankfurt Main Airport (EDDF)

Arrival

Time N/A
Airport Addis Ababa Bole International Airport (HAAB)
Time Latitude Longitude Altitude Speed Heading
2026-05-06 06:52 50.04021 8.54324 377 ft 0 kts 70°
2026-05-06 07:09 50.04019 8.54318 377 ft 2 kts 70°
2026-05-06 07:09 50.04015 8.54297 377 ft 2 kts 70°
2026-05-06 07:09 50.04009 8.54275 377 ft 2 kts 70°
2026-05-06 07:10 50.04006 8.54252 377 ft 2 kts 94°
2026-05-06 07:10 50.04009 8.54230 377 ft 2 kts 117°
2026-05-06 07:10 50.04018 8.54212 377 ft 2 kts 139°
2026-05-06 07:10 50.04028 8.54201 377 ft 0 kts 160°
2026-05-06 07:11 50.04024 8.54204 377 ft 3 kts 158°
2026-05-06 07:11 50.04002 8.54217 377 ft 1 kts 161°
2026-05-06 07:11 50.03987 8.54225 377 ft 4 kts 160°
2026-05-06 07:11 50.03977 8.54231 377 ft 0 kts 159°
2026-05-06 07:13 50.03976 8.54232 377 ft 1 kts 159°
2026-05-06 07:13 50.03932 8.54257 377 ft 11 kts 160°
2026-05-06 07:14 50.03853 8.54298 377 ft 10 kts 182°
2026-05-06 07:14 50.03803 8.54224 377 ft 10 kts 242°
2026-05-06 07:14 50.03773 8.54112 377 ft 11 kts 249°
2026-05-06 07:14 50.03749 8.54010 377 ft 9 kts 251°
2026-05-06 07:15 50.03728 8.53923 377 ft 7 kts 250°
2026-05-06 07:15 50.03711 8.53851 377 ft 6 kts 250°
2026-05-06 07:15 50.03697 8.53791 377 ft 5 kts 250°
2026-05-06 07:15 50.03685 8.53742 377 ft 4 kts 250°
2026-05-06 07:16 50.03674 8.53694 377 ft 5 kts 250°
2026-05-06 07:16 50.03653 8.53611 377 ft 10 kts 249°
2026-05-06 07:16 50.03628 8.53513 377 ft 8 kts 249°
2026-05-06 07:16 50.03610 8.53435 377 ft 6 kts 251°
2026-05-06 07:17 50.03596 8.53377 377 ft 5 kts 250°
2026-05-06 07:17 50.03585 8.53330 377 ft 4 kts 249°
2026-05-06 07:17 50.03573 8.53281 377 ft 6 kts 249°
2026-05-06 07:17 50.03553 8.53204 377 ft 7 kts 249°
2026-05-06 07:18 50.03536 8.53131 377 ft 8 kts 249°
2026-05-06 07:18 50.03515 8.53049 377 ft 7 kts 250°
2026-05-06 07:18 50.03499 8.52980 377 ft 6 kts 250°
2026-05-06 07:18 50.03485 8.52924 377 ft 4 kts 249°
2026-05-06 07:19 50.03470 8.52868 377 ft 6 kts 247°
2026-05-06 07:19 50.03453 8.52807 377 ft 5 kts 247°
2026-05-06 07:19 50.03442 8.52762 377 ft 0 kts 249°
2026-05-06 07:20 50.03440 8.52756 377 ft 3 kts 248°
2026-05-06 07:20 50.03418 8.52669 377 ft 11 kts 249°
2026-05-06 07:21 50.03367 8.52595 377 ft 9 kts 195°
2026-05-06 07:21 50.03335 8.52590 377 ft 0 kts 180°
2026-05-06 07:22 50.03334 8.52590 377 ft 0 kts 180°
2026-05-06 07:22 50.03285 8.52590 377 ft 17 kts 180°
2026-05-06 07:23 50.02931 8.52594 377 ft 86 kts 180°
2026-05-06 07:23 50.02102 8.52602 377 ft 152 kts 180°
2026-05-06 07:23 50.00899 8.52613 685 ft 182 kts 181°
2026-05-06 07:23 49.99651 8.52625 1418 ft 187 kts 181°
2026-05-06 07:24 49.98323 8.52658 1925 ft 198 kts 180°
2026-05-06 07:24 49.96937 8.53079 2384 ft 213 kts 161°
2026-05-06 07:24 49.95642 8.54343 2822 ft 233 kts 137°
2026-05-06 07:24 49.94714 8.56478 3371 ft 247 kts 112°
2026-05-06 07:25 49.94245 8.59065 4021 ft 256 kts 105°
2026-05-06 07:25 49.93959 8.61851 4543 ft 272 kts 95°
2026-05-06 07:25 49.93876 8.64814 5192 ft 281 kts 93°
2026-05-06 07:25 49.93722 8.67846 6018 ft 281 kts 107°
2026-05-06 07:26 49.92942 8.70541 6684 ft 282 kts 131°
2026-05-06 07:26 49.91484 8.72545 7299 ft 283 kts 153°
2026-05-06 07:26 49.89789 8.74079 8163 ft 282 kts 153°
2026-05-06 07:26 49.88237 8.75820 9078 ft 281 kts 137°
2026-05-06 07:27 49.87106 8.78345 9738 ft 292 kts 119°
2026-05-06 07:27 49.86237 8.81210 10207 ft 304 kts 120°
2026-05-06 07:27 49.85253 8.84197 10596 ft 319 kts 122°
2026-05-06 07:27 49.84162 8.87289 10968 ft 336 kts 122°
2026-05-06 07:28 49.82997 8.90514 11402 ft 350 kts 122°
2026-05-06 07:28 49.81791 8.93835 11870 ft 364 kts 122°
2026-05-06 07:28 49.79223 9.00887 12865 ft 389 kts 122°
2026-05-06 07:29 49.77875 9.04585 13620 ft 395 kts 122°
2026-05-06 07:29 49.76591 9.08310 14400 ft 400 kts 116°
2026-05-06 07:29 49.75634 9.12390 15148 ft 406 kts 112°
2026-05-06 07:29 49.74485 9.16311 15857 ft 407 kts 122°
2026-05-06 07:30 49.72945 9.19961 16556 ft 410 kts 128°
2026-05-06 07:30 49.71263 9.23503 17284 ft 413 kts 129°
2026-05-06 07:30 49.69507 9.27008 18009 ft 416 kts 130°
2026-05-06 07:30 49.67697 9.30483 18715 ft 419 kts 131°
2026-05-06 07:31 49.65821 9.33983 19366 ft 424 kts 132°
2026-05-06 07:31 49.63919 9.37466 20004 ft 429 kts 132°
2026-05-06 07:31 49.61865 9.40767 20623 ft 431 kts 141°
2026-05-06 07:31 49.59460 9.43532 21236 ft 432 kts 149°
2026-05-06 07:32 49.56922 9.45916 21847 ft 436 kts 151°
2026-05-06 07:32 49.54294 9.48330 22485 ft 440 kts 151°
2026-05-06 07:32 49.51673 9.50730 23085 ft 443 kts 151°
2026-05-06 07:32 49.49004 9.53168 23649 ft 448 kts 152°
2026-05-06 07:33 49.46351 9.55589 24203 ft 451 kts 152°
2026-05-06 07:33 49.43627 9.58070 24776 ft 455 kts 152°
2026-05-06 07:33 49.40886 9.60562 25360 ft 457 kts 152°
2026-05-06 07:33 49.38186 9.63015 25931 ft 459 kts 152°
2026-05-06 07:34 49.35437 9.65551 26495 ft 462 kts 150°
2026-05-06 07:34 49.32875 9.68582 26996 ft 470 kts 142°
2026-05-06 07:34 49.30511 9.72090 27492 ft 475 kts 139°
2026-05-06 07:34 49.28170 9.75677 28001 ft 478 kts 139°
2026-05-06 07:35 49.25844 9.79238 28511 ft 481 kts 139°
2026-05-06 07:35 49.23466 9.82872 29047 ft 483 kts 140°
2026-05-06 07:35 49.21084 9.86504 29692 ft 483 kts 140°
2026-05-06 07:35 49.18722 9.90099 30482 ft 479 kts 140°
2026-05-06 07:36 49.16380 9.93654 30783 ft 480 kts 141°
2026-05-06 07:36 49.14039 9.97206 30788 ft 476 kts 141°
2026-05-06 07:36 49.09360 10.04281 30793 ft 474 kts 141°
2026-05-06 07:37 49.04639 10.11330 30793 ft 474 kts 142°
2026-05-06 07:37 48.99813 10.18131 30796 ft 479 kts 142°
2026-05-06 07:38 48.94866 10.25084 30788 ft 488 kts 142°
2026-05-06 07:38 48.89918 10.32058 30789 ft 488 kts 142°
2026-05-06 07:39 48.84921 10.39089 30808 ft 487 kts 142°
2026-05-06 07:39 48.80073 10.46226 30807 ft 491 kts 138°
2026-05-06 07:40 48.75424 10.53770 30804 ft 491 kts 138°
2026-05-06 07:40 48.70752 10.61292 30825 ft 491 kts 139°
2026-05-06 07:41 48.66079 10.68765 30799 ft 490 kts 139°
2026-05-06 07:41 48.61400 10.76210 30807 ft 490 kts 139°
2026-05-06 07:42 48.56696 10.83691 30799 ft 491 kts 139°
2026-05-06 07:42 48.52038 10.91149 30819 ft 492 kts 139°
2026-05-06 07:43 48.47329 10.98634 30810 ft 492 kts 140°
2026-05-06 07:43 48.42592 11.06018 30807 ft 491 kts 140°
2026-05-06 07:44 48.37846 11.13395 30815 ft 491 kts 140°
2026-05-06 07:44 48.33107 11.20740 30790 ft 493 kts 140°
2026-05-06 07:45 48.28345 11.28105 30807 ft 494 kts 140°
2026-05-06 07:45 48.24242 11.36575 30808 ft 505 kts 126°
2026-05-06 07:46 48.20733 11.45672 30814 ft 510 kts 126°
2026-05-06 07:46 48.17181 11.54871 30787 ft 511 kts 126°
2026-05-06 07:47 48.13610 11.64071 30792 ft 512 kts 126°
2026-05-06 07:47 48.10049 11.73211 30788 ft 512 kts 127°
2026-05-06 07:48 48.06471 11.82357 30803 ft 512 kts 127°
2026-05-06 07:48 48.02878 11.91506 30801 ft 514 kts 127°
2026-05-06 07:49 47.99253 12.00704 30805 ft 516 kts 127°
2026-05-06 07:49 47.95614 12.09904 30815 ft 516 kts 127°
2026-05-06 07:50 47.91205 12.18044 30805 ft 497 kts 143°
2026-05-06 07:50 47.85961 12.24766 30846 ft 497 kts 146°
2026-05-06 07:51 47.80728 12.31335 30837 ft 495 kts 146°
2026-05-06 07:51 47.75439 12.37942 30865 ft 497 kts 146°
2026-05-06 07:52 47.70138 12.44543 30863 ft 497 kts 146°
2026-05-06 07:52 47.64862 12.51092 30869 ft 497 kts 146°
2026-05-06 07:53 47.59798 12.58107 30880 ft 500 kts 140°
2026-05-06 07:53 47.54965 12.65446 30874 ft 502 kts 141°
2026-05-06 07:54 47.50095 12.72818 30903 ft 504 kts 141°
2026-05-06 07:54 47.45163 12.80251 30885 ft 509 kts 141°
2026-05-06 07:55 47.40223 12.87680 30901 ft 507 kts 141°
2026-05-06 07:55 47.35282 12.95082 30898 ft 510 kts 141°
2026-05-06 07:56 47.30304 13.02519 30904 ft 509 kts 140°
2026-05-06 07:56 47.25355 13.09891 30905 ft 508 kts 140°
2026-05-06 07:57 47.20391 13.17262 30919 ft 510 kts 140°
2026-05-06 07:57 47.15446 13.24588 30899 ft 506 kts 140°
2026-05-06 07:58 47.10455 13.31956 30902 ft 510 kts 140°
2026-05-06 07:58 47.05474 13.39292 30913 ft 509 kts 140°
2026-05-06 07:59 47.00481 13.46623 30920 ft 511 kts 140°
2026-05-06 07:59 46.95472 13.53959 30919 ft 512 kts 140°
2026-05-06 08:00 46.90458 13.61281 30912 ft 510 kts 140°
2026-05-06 08:00 46.85406 13.68636 30921 ft 511 kts 141°
2026-05-06 08:01 46.80385 13.75928 30941 ft 510 kts 140°
2026-05-06 08:01 46.75333 13.83244 30944 ft 510 kts 141°
2026-05-06 08:02 46.70310 13.90496 30941 ft 509 kts 140°
2026-05-06 08:02 46.65278 13.97720 30943 ft 511 kts 140°
2026-05-06 08:03 46.60242 14.04914 30939 ft 510 kts 140°
2026-05-06 08:03 46.55175 14.12135 30935 ft 510 kts 140°
2026-05-06 08:04 46.50098 14.19350 30935 ft 513 kts 140°
2026-05-06 08:04 46.45011 14.26559 30934 ft 512 kts 140°
2026-05-06 08:05 46.39940 14.33728 30936 ft 514 kts 140°
2026-05-06 08:05 46.34858 14.40893 30931 ft 512 kts 140°
2026-05-06 08:06 46.29748 14.48076 30924 ft 514 kts 140°
2026-05-06 08:06 46.24608 14.55282 30923 ft 515 kts 140°
2026-05-06 08:07 46.19507 14.62414 30929 ft 514 kts 140°
2026-05-06 08:07 46.14328 14.69636 30934 ft 514 kts 141°
2026-05-06 08:08 46.09225 14.76732 30933 ft 515 kts 141°
2026-05-06 08:08 46.03983 14.83838 30932 ft 515 kts 142°
2026-05-06 08:09 45.98748 14.90815 30930 ft 516 kts 142°
2026-05-06 08:09 45.93490 14.97811 30922 ft 515 kts 142°
2026-05-06 08:10 45.88228 15.04798 30927 ft 517 kts 142°
2026-05-06 08:10 45.82984 15.11746 30929 ft 516 kts 142°
2026-05-06 08:11 45.77712 15.18713 30941 ft 517 kts 142°
2026-05-06 08:11 45.72413 15.25697 30936 ft 517 kts 142°
2026-05-06 08:12 45.67146 15.32624 30952 ft 518 kts 142°
2026-05-06 08:12 45.61848 15.39571 30950 ft 517 kts 142°
2026-05-06 08:13 45.56554 15.46493 30950 ft 518 kts 142°
2026-05-06 08:13 45.51251 15.53411 30952 ft 518 kts 142°
2026-05-06 08:14 45.45955 15.60299 30948 ft 519 kts 142°
2026-05-06 08:14 45.40609 15.67237 30951 ft 518 kts 142°
2026-05-06 08:15 45.35314 15.74087 30944 ft 518 kts 142°
2026-05-06 08:15 45.29973 15.80979 30947 ft 519 kts 142°
2026-05-06 08:16 45.24661 15.87818 30947 ft 517 kts 142°
2026-05-06 08:16 45.19214 15.94551 30955 ft 516 kts 146°
2026-05-06 08:17 45.13648 16.00846 30950 ft 515 kts 146°
2026-05-06 08:17 45.08067 16.07161 30945 ft 515 kts 146°
2026-05-06 08:18 45.02501 16.13465 30947 ft 515 kts 145°
2026-05-06 08:18 44.96911 16.19792 30954 ft 515 kts 145°
2026-05-06 08:19 44.91355 16.26071 30957 ft 515 kts 145°
2026-05-06 08:19 44.85730 16.32415 30972 ft 516 kts 145°
2026-05-06 08:20 44.80136 16.38709 30977 ft 517 kts 145°
2026-05-06 08:20 44.74527 16.45008 30988 ft 517 kts 145°
2026-05-06 08:21 44.68911 16.51296 30989 ft 518 kts 145°
2026-05-06 08:21 44.63303 16.57560 31004 ft 518 kts 144°
2026-05-06 08:22 44.57661 16.63848 31006 ft 517 kts 144°
2026-05-06 08:22 44.52040 16.70095 31001 ft 518 kts 145°
2026-05-06 08:23 44.46415 16.76331 31012 ft 518 kts 145°
2026-05-06 08:23 44.40799 16.82541 31036 ft 518 kts 145°
2026-05-06 08:24 44.35165 16.88756 31028 ft 518 kts 145°
2026-05-06 08:24 44.29497 16.94993 31040 ft 518 kts 145°
2026-05-06 08:25 44.23869 17.01170 31027 ft 517 kts 144°
2026-05-06 08:25 44.18204 17.07372 31038 ft 519 kts 144°
2026-05-06 08:26 44.12566 17.13529 31036 ft 518 kts 144°
2026-05-06 08:26 44.06895 17.19706 31040 ft 518 kts 144°
2026-05-06 08:27 44.01255 17.25834 31047 ft 518 kts 144°
2026-05-06 08:27 43.95600 17.31964 31042 ft 518 kts 144°
2026-05-06 08:28 43.89932 17.38093 31046 ft 519 kts 144°
2026-05-06 08:28 43.84248 17.44222 31047 ft 519 kts 144°
2026-05-06 08:29 43.78550 17.50353 31052 ft 518 kts 144°
2026-05-06 08:29 43.72734 17.56114 31057 ft 516 kts 149°
2026-05-06 08:30 43.66699 17.61481 31054 ft 516 kts 150°
2026-05-06 08:30 43.60695 17.66800 31050 ft 515 kts 150°
2026-05-06 08:31 43.54626 17.72164 31048 ft 517 kts 150°
2026-05-06 08:31 43.48603 17.77476 31046 ft 516 kts 150°
2026-05-06 08:32 43.42589 17.82767 31058 ft 517 kts 150°
2026-05-06 08:32 43.36513 17.88100 31066 ft 517 kts 150°
2026-05-06 08:33 43.30499 17.93366 31071 ft 517 kts 150°
2026-05-06 08:33 43.24434 17.98664 31072 ft 516 kts 150°
2026-05-06 08:34 43.15392 18.06540 31081 ft 515 kts 150°
2026-05-06 08:35 43.09330 18.11803 31086 ft 515 kts 150°
2026-05-06 08:35 43.03290 18.17036 31088 ft 517 kts 150°
2026-05-06 08:36 42.97229 18.22273 31090 ft 518 kts 150°
2026-05-06 08:36 42.91143 18.27521 31095 ft 519 kts 150°
2026-05-06 08:37 42.85053 18.32760 31092 ft 517 kts 150°
2026-05-06 08:37 42.78947 18.37999 31091 ft 519 kts 150°
2026-05-06 08:38 42.72841 18.43227 31093 ft 520 kts 150°
2026-05-06 08:38 42.66761 18.48420 31087 ft 519 kts 150°
2026-05-06 08:39 42.60643 18.53633 31089 ft 520 kts 150°
2026-05-06 08:39 42.54500 18.58855 31092 ft 520 kts 150°
2026-05-06 08:40 42.48412 18.64018 31092 ft 520 kts 150°
2026-05-06 08:40 42.42261 18.69223 31084 ft 520 kts 150°
2026-05-06 08:41 42.36130 18.74398 31082 ft 521 kts 150°
2026-05-06 08:41 42.29965 18.79590 31084 ft 522 kts 150°
2026-05-06 08:42 42.23804 18.84767 31081 ft 521 kts 150°
2026-05-06 08:42 42.17643 18.89932 31079 ft 522 kts 150°
2026-05-06 08:43 42.11500 18.95069 31080 ft 522 kts 150°
2026-05-06 08:43 42.05345 19.00205 31078 ft 521 kts 150°
2026-05-06 08:44 41.99164 19.05349 31074 ft 524 kts 150°
2026-05-06 08:44 41.92990 19.10478 31077 ft 524 kts 150°
2026-05-06 08:45 41.86817 19.15593 31075 ft 524 kts 150°
2026-05-06 08:45 41.80617 19.20719 31074 ft 524 kts 150°
2026-05-06 08:46 41.74439 19.25815 31073 ft 523 kts 150°
2026-05-06 08:46 41.68257 19.30901 31070 ft 524 kts 150°
2026-05-06 08:47 41.62039 19.36007 31073 ft 526 kts 150°
2026-05-06 08:47 41.55846 19.41080 31079 ft 525 kts 150°
2026-05-06 08:48 41.49607 19.46178 31079 ft 526 kts 150°
2026-05-06 08:48 41.43352 19.51280 31082 ft 526 kts 150°
2026-05-06 08:49 41.37132 19.56340 31085 ft 526 kts 150°
2026-05-06 08:49 41.30886 19.61410 31087 ft 526 kts 150°
2026-05-06 08:50 41.24638 19.66470 31085 ft 526 kts 151°
2026-05-06 08:50 41.18388 19.71521 31087 ft 527 kts 150°
2026-05-06 08:51 41.12146 19.76553 31090 ft 528 kts 150°
2026-05-06 08:51 41.05891 19.81585 31089 ft 528 kts 150°
2026-05-06 08:52 40.99617 19.86620 31086 ft 528 kts 150°
2026-05-06 08:52 40.93344 19.91644 31088 ft 528 kts 150°
2026-05-06 08:53 40.87061 19.96664 31090 ft 528 kts 150°
2026-05-06 08:53 40.80791 20.01662 31095 ft 528 kts 150°
2026-05-06 08:54 40.74489 20.06675 31101 ft 529 kts 150°
2026-05-06 08:54 40.68171 20.11689 31345 ft 536 kts 150°
2026-05-06 08:54 40.64984 20.14215 32042 ft 530 kts 150°
2026-05-06 08:55 40.61870 20.16680 32834 ft 524 kts 151°
2026-05-06 08:55 40.58750 20.19147 33101 ft 526 kts 151°
2026-05-06 08:55 40.55608 20.21628 33111 ft 524 kts 151°
2026-05-06 08:56 40.49410 20.26514 33117 ft 522 kts 151°
2026-05-06 08:56 40.43099 20.31275 33126 ft 522 kts 154°
2026-05-06 08:57 40.36730 20.35797 33135 ft 522 kts 154°
2026-05-06 08:57 40.30351 20.40314 33139 ft 523 kts 154°
2026-05-06 08:58 40.23975 20.44819 33141 ft 522 kts 154°
2026-05-06 08:58 40.17589 20.49322 33141 ft 523 kts 154°
2026-05-06 08:59 40.11214 20.53807 33142 ft 522 kts 153°
2026-05-06 08:59 40.04802 20.58308 33144 ft 522 kts 153°
2026-05-06 09:00 39.98433 20.62769 33157 ft 523 kts 154°
2026-05-06 09:00 39.91993 20.67271 33153 ft 523 kts 154°
2026-05-06 09:01 39.85589 20.71738 33140 ft 523 kts 154°
2026-05-06 09:01 39.79159 20.76214 33128 ft 523 kts 154°
2026-05-06 09:02 39.72757 20.80660 33108 ft 524 kts 154°
2026-05-06 09:02 39.66342 20.85106 33108 ft 523 kts 154°
2026-05-06 09:03 39.59948 20.89529 33114 ft 524 kts 154°
2026-05-06 09:03 39.53540 20.93951 33125 ft 523 kts 154°
2026-05-06 09:04 39.47118 20.98373 33117 ft 524 kts 154°
2026-05-06 09:04 39.40681 21.02798 33115 ft 523 kts 154°
2026-05-06 09:05 39.34262 21.07200 33115 ft 524 kts 154°
2026-05-06 09:05 39.27807 21.11617 33122 ft 525 kts 154°
2026-05-06 09:06 39.21406 21.15989 33122 ft 524 kts 154°
2026-05-06 09:06 39.14952 21.20387 33130 ft 525 kts 154°
2026-05-06 09:07 39.08518 21.24763 33125 ft 524 kts 154°
2026-05-06 09:07 39.02168 21.29072 33124 ft 525 kts 154°
2026-05-06 09:08 38.95692 21.33459 33120 ft 526 kts 154°
2026-05-06 09:08 38.89227 21.37828 33111 ft 526 kts 154°
2026-05-06 09:09 38.82743 21.42201 33110 ft 527 kts 154°
2026-05-06 09:09 38.76290 21.46544 33109 ft 526 kts 154°
2026-05-06 09:10 38.69825 21.50887 33108 ft 525 kts 154°
2026-05-06 09:10 38.63357 21.55223 33113 ft 525 kts 154°
2026-05-06 09:11 38.56895 21.59546 33115 ft 526 kts 154°
2026-05-06 09:11 38.50417 21.63870 33113 ft 525 kts 154°
2026-05-06 09:12 38.43938 21.68187 33105 ft 525 kts 155°
2026-05-06 09:12 38.37461 21.72493 33103 ft 525 kts 154°
2026-05-06 09:13 38.30970 21.76800 33097 ft 526 kts 155°
2026-05-06 09:13 38.24503 21.81082 33089 ft 524 kts 155°
2026-05-06 09:14 38.18026 21.85362 33097 ft 526 kts 154°
2026-05-06 09:14 38.11533 21.89644 33117 ft 527 kts 154°
2026-05-06 09:15 38.05059 21.93905 33136 ft 524 kts 154°
2026-05-06 09:15 37.98587 21.98156 33152 ft 525 kts 154°
2026-05-06 09:16 37.92096 22.02412 33161 ft 525 kts 154°
2026-05-06 09:16 37.85651 22.06628 33160 ft 525 kts 154°
2026-05-06 09:17 37.79139 22.10880 33151 ft 526 kts 154°
2026-05-06 09:17 37.72673 22.15093 33147 ft 527 kts 154°
2026-05-06 09:18 37.66172 22.19321 33142 ft 527 kts 154°
2026-05-06 09:18 37.59623 22.23572 33138 ft 527 kts 154°
2026-05-06 09:19 37.53147 22.27767 33138 ft 527 kts 154°
2026-05-06 09:19 37.46636 22.31976 33133 ft 528 kts 154°
2026-05-06 09:20 37.40093 22.36198 33130 ft 527 kts 154°
2026-05-06 09:20 37.33579 22.40392 33128 ft 528 kts 154°
2026-05-06 09:21 37.27029 22.44601 33128 ft 528 kts 154°
2026-05-06 09:21 37.20514 22.48781 33126 ft 527 kts 154°
2026-05-06 09:22 37.13994 22.52955 33117 ft 527 kts 154°
2026-05-06 09:22 37.07492 22.57109 33112 ft 527 kts 154°
2026-05-06 09:23 37.00922 22.61299 33105 ft 529 kts 154°
2026-05-06 09:23 36.94376 22.65464 33099 ft 529 kts 155°
2026-05-06 09:24 36.87850 22.69610 33085 ft 527 kts 155°
2026-05-06 09:24 36.81280 22.73775 33084 ft 528 kts 155°
2026-05-06 09:25 36.74773 22.77892 33078 ft 528 kts 155°
2026-05-06 09:25 36.68251 22.82011 33077 ft 528 kts 155°
2026-05-06 09:26 36.61682 22.86153 33086 ft 527 kts 155°
2026-05-06 09:26 36.55177 22.90245 33084 ft 527 kts 155°
2026-05-06 09:27 36.48622 22.94361 33089 ft 527 kts 155°
2026-05-06 09:27 36.42103 22.98447 33095 ft 525 kts 155°
2026-05-06 09:28 36.35561 23.02539 33103 ft 527 kts 155°
2026-05-06 09:28 36.29041 23.06610 33107 ft 527 kts 155°
2026-05-06 09:29 36.22477 23.10701 33110 ft 526 kts 155°
2026-05-06 09:29 36.15979 23.14743 33106 ft 525 kts 155°
2026-05-06 09:30 36.09448 23.18798 33098 ft 525 kts 155°
2026-05-06 09:30 36.02918 23.22845 33101 ft 525 kts 155°
2026-05-06 09:31 35.96399 23.26877 33099 ft 525 kts 155°
2026-05-06 09:31 35.89907 23.30885 33101 ft 526 kts 155°
2026-05-06 09:32 35.83343 23.34930 33099 ft 525 kts 155°
2026-05-06 09:32 35.76810 23.38948 33100 ft 525 kts 155°
2026-05-06 09:33 35.70277 23.42960 33100 ft 525 kts 155°
2026-05-06 09:33 35.63732 23.46971 33101 ft 525 kts 155°
2026-05-06 09:34 35.57204 23.50964 33103 ft 526 kts 155°
2026-05-06 09:34 35.50690 23.54942 33102 ft 520 kts 155°
2026-05-06 09:34 35.47504 23.56886 33102 ft 506 kts 155°
2026-05-06 09:35 35.44373 23.58795 33104 ft 495 kts 155°
2026-05-06 09:35 35.38172 23.62568 33109 ft 501 kts 155°
2026-05-06 09:36 35.31934 23.66357 33105 ft 499 kts 155°
2026-05-06 09:36 35.25732 23.70117 33108 ft 499 kts 155°
2026-05-06 09:37 35.19530 23.73871 33110 ft 500 kts 155°
2026-05-06 09:37 35.13273 23.77652 33108 ft 500 kts 155°
2026-05-06 09:38 35.07046 23.81408 33107 ft 500 kts 155°
2026-05-06 09:38 35.00812 23.85162 33103 ft 499 kts 155°
2026-05-06 09:39 34.94610 23.88891 33103 ft 499 kts 155°
2026-05-06 09:39 34.88377 23.92631 33097 ft 498 kts 155°
2026-05-06 09:40 34.82142 23.96367 33097 ft 499 kts 155°
2026-05-06 09:40 34.72834 24.01932 33102 ft 499 kts 155°
2026-05-06 09:41 34.66596 24.05654 33098 ft 498 kts 155°
2026-05-06 09:41 34.60396 24.09346 33102 ft 498 kts 155°
2026-05-06 09:42 34.54185 24.13040 33106 ft 498 kts 155°
2026-05-06 09:42 34.47971 24.16729 33107 ft 498 kts 155°
2026-05-06 09:43 34.41730 24.20427 33105 ft 498 kts 155°
2026-05-06 09:43 34.35519 24.24101 33108 ft 498 kts 155°
2026-05-06 09:44 34.29332 24.27756 33112 ft 497 kts 155°
2026-05-06 09:44 34.23107 24.31426 33114 ft 496 kts 155°
2026-05-06 09:45 34.16899 24.35082 33115 ft 497 kts 155°
2026-05-06 09:45 34.10680 24.38737 33115 ft 497 kts 155°
2026-05-06 09:46 34.04486 24.42371 33120 ft 496 kts 155°
2026-05-06 09:46 33.98559 24.46604 33111 ft 500 kts 142°
2026-05-06 09:47 33.93336 24.52135 33108 ft 501 kts 139°
2026-05-06 09:47 33.88111 24.57774 33104 ft 502 kts 139°
2026-05-06 09:48 33.82939 24.63338 33106 ft 502 kts 139°
2026-05-06 09:48 33.77735 24.68922 33102 ft 501 kts 140°
2026-05-06 09:49 33.72561 24.74462 33107 ft 501 kts 140°
2026-05-06 09:49 33.67350 24.80029 33098 ft 501 kts 140°
2026-05-06 09:50 33.62149 24.85576 33105 ft 501 kts 140°
2026-05-06 09:50 33.56954 24.91108 33096 ft 501 kts 140°
2026-05-06 09:51 33.51716 24.96676 33100 ft 501 kts 140°
2026-05-06 09:51 33.46497 25.02213 33106 ft 501 kts 140°
2026-05-06 09:52 33.41291 25.07727 33110 ft 501 kts 140°
2026-05-06 09:52 33.36089 25.13228 33107 ft 503 kts 140°
2026-05-06 09:53 33.30845 25.18764 33111 ft 502 kts 140°
2026-05-06 09:53 33.25608 25.24283 33112 ft 502 kts 140°
2026-05-06 09:54 33.20379 25.29785 33116 ft 502 kts 140°
2026-05-06 09:54 33.15143 25.35285 33119 ft 505 kts 140°
2026-05-06 09:55 33.09832 25.40854 33117 ft 508 kts 140°
2026-05-06 09:55 33.04547 25.46388 33120 ft 508 kts 140°
2026-05-06 09:56 32.99239 25.51935 33121 ft 509 kts 140°
2026-05-06 09:56 32.93927 25.57478 33121 ft 509 kts 140°
2026-05-06 09:57 32.88569 25.63060 33119 ft 510 kts 140°
2026-05-06 09:57 32.83240 25.68602 33111 ft 509 kts 140°
2026-05-06 09:58 32.77916 25.74130 33112 ft 508 kts 140°
2026-05-06 09:58 32.72578 25.79662 33115 ft 510 kts 140°
2026-05-06 09:59 32.67250 25.85176 33114 ft 509 kts 140°
2026-05-06 09:59 32.61923 25.90680 33115 ft 510 kts 140°
2026-05-06 10:00 32.56580 25.96191 33114 ft 510 kts 140°
2026-05-06 10:00 32.51218 26.01712 33118 ft 510 kts 140°
2026-05-06 10:01 32.45890 26.07190 33119 ft 510 kts 140°
2026-05-06 10:01 32.40535 26.12686 33110 ft 510 kts 140°
2026-05-06 10:02 32.35170 26.18184 33114 ft 509 kts 141°
2026-05-06 10:02 32.29818 26.23659 33114 ft 510 kts 141°
2026-05-06 10:03 32.24453 26.29139 33118 ft 510 kts 141°
2026-05-06 10:03 32.19111 26.34586 33116 ft 511 kts 141°
2026-05-06 10:04 32.13714 26.40081 33119 ft 512 kts 141°
2026-05-06 10:04 32.08345 26.45538 33114 ft 510 kts 141°
2026-05-06 10:05 32.02965 26.50997 33117 ft 510 kts 141°
2026-05-06 10:05 31.97616 26.56418 33119 ft 510 kts 141°
2026-05-06 10:06 31.92207 26.61888 33119 ft 511 kts 141°
2026-05-06 10:06 31.86843 26.67306 33112 ft 511 kts 141°
2026-05-06 10:07 31.81443 26.72750 33110 ft 512 kts 141°
2026-05-06 10:07 31.76042 26.78188 33112 ft 511 kts 141°
2026-05-06 10:08 31.70645 26.83613 33112 ft 512 kts 141°
2026-05-06 10:08 31.65220 26.89057 33114 ft 513 kts 141°
2026-05-06 10:09 31.59796 26.94491 33112 ft 512 kts 141°
2026-05-06 10:09 31.54375 26.99914 33118 ft 513 kts 141°
2026-05-06 10:10 31.48936 27.05346 33121 ft 512 kts 141°
2026-05-06 10:10 31.43542 27.10725 33127 ft 513 kts 142°
2026-05-06 10:11 31.38110 27.16133 33130 ft 514 kts 142°
2026-05-06 10:11 31.32559 27.21395 33132 ft 511 kts 149°
2026-05-06 10:12 31.26323 27.25228 33134 ft 507 kts 158°
2026-05-06 10:12 31.19930 27.28737 33133 ft 506 kts 158°
2026-05-06 10:13 31.13573 27.32202 33133 ft 507 kts 158°
2026-05-06 10:13 31.07177 27.35675 33131 ft 507 kts 158°
2026-05-06 10:14 31.00751 27.39156 33133 ft 507 kts 158°
2026-05-06 10:14 30.94395 27.42683 33123 ft 508 kts 153°
2026-05-06 10:15 30.88637 27.47504 33132 ft 514 kts 143°
2026-05-06 10:15 30.83044 27.52701 33130 ft 515 kts 143°
2026-05-06 10:16 30.77455 27.57885 33134 ft 514 kts 143°
2026-05-06 10:16 30.71877 27.63049 33132 ft 514 kts 144°
2026-05-06 10:17 30.66231 27.68265 33121 ft 515 kts 144°
2026-05-06 10:17 30.60639 27.73422 33117 ft 516 kts 144°
2026-05-06 10:18 30.55016 27.78599 33121 ft 514 kts 144°
2026-05-06 10:18 30.49433 27.83732 33115 ft 516 kts 144°
2026-05-06 10:19 30.43821 27.88883 33108 ft 515 kts 144°
2026-05-06 10:19 30.38199 27.94035 33107 ft 516 kts 144°
2026-05-06 10:20 30.32570 27.99187 33104 ft 517 kts 144°
2026-05-06 10:20 30.26942 28.04329 33103 ft 516 kts 144°
2026-05-06 10:21 30.21321 28.09457 33096 ft 516 kts 144°
2026-05-06 10:21 30.15682 28.14594 33099 ft 516 kts 144°
2026-05-06 10:22 30.10025 28.19739 33097 ft 517 kts 144°
2026-05-06 10:22 30.04424 28.24827 33094 ft 515 kts 144°
2026-05-06 10:23 29.98787 28.29939 33097 ft 516 kts 144°
2026-05-06 10:23 29.93141 28.35051 33100 ft 515 kts 144°
2026-05-06 10:24 29.87514 28.40245 33097 ft 519 kts 140°
2026-05-06 10:24 29.82794 28.46537 33102 ft 523 kts 129°
2026-05-06 10:25 29.78389 28.53145 33099 ft 522 kts 129°
2026-05-06 10:25 29.73961 28.59770 33105 ft 523 kts 129°
2026-05-06 10:26 29.69504 28.66419 33100 ft 524 kts 130°
2026-05-06 10:26 29.65071 28.73018 33092 ft 522 kts 130°
2026-05-06 10:27 29.60622 28.79631 33101 ft 523 kts 130°
2026-05-06 10:27 29.56188 28.86210 33099 ft 524 kts 130°
2026-05-06 10:28 29.51737 28.92801 33102 ft 524 kts 130°
2026-05-06 10:28 29.47281 28.99392 33099 ft 523 kts 130°
2026-05-06 10:29 29.42762 29.05946 33097 ft 522 kts 135°
2026-05-06 10:29 29.37343 29.11382 33100 ft 518 kts 146°
2026-05-06 10:30 29.31642 29.16346 33097 ft 516 kts 146°
2026-05-06 10:30 29.25894 29.21334 33102 ft 518 kts 146°
2026-05-06 10:31 29.20151 29.26312 33102 ft 516 kts 146°
2026-05-06 10:31 29.14445 29.31250 33099 ft 518 kts 146°
2026-05-06 10:32 29.08684 29.36152 33099 ft 516 kts 147°
2026-05-06 10:32 29.02849 29.40993 33099 ft 518 kts 147°
2026-05-06 10:33 28.97016 29.45833 33100 ft 519 kts 147°
2026-05-06 10:33 28.91212 29.50646 33099 ft 518 kts 147°
2026-05-06 10:34 28.85370 29.55486 33096 ft 519 kts 147°
2026-05-06 10:34 28.79526 29.60321 33094 ft 517 kts 147°
2026-05-06 10:35 28.73700 29.65136 33095 ft 519 kts 148°
2026-05-06 10:35 28.67821 29.69988 33082 ft 517 kts 148°
2026-05-06 10:36 28.62016 29.74772 33078 ft 518 kts 148°
2026-05-06 10:36 28.56172 29.79583 33076 ft 517 kts 148°
2026-05-06 10:37 28.50376 29.84347 33077 ft 517 kts 148°
2026-05-06 10:37 28.44535 29.89140 33075 ft 518 kts 148°
2026-05-06 10:38 28.38699 29.93924 33072 ft 519 kts 148°
2026-05-06 10:38 28.32836 29.98723 33072 ft 519 kts 148°
2026-05-06 10:39 28.26972 30.03516 33069 ft 520 kts 148°
2026-05-06 10:39 28.21141 30.08276 33063 ft 519 kts 148°
2026-05-06 10:40 28.15265 30.13066 33071 ft 520 kts 148°
2026-05-06 10:40 28.09395 30.17844 33068 ft 519 kts 148°
2026-05-06 10:41 28.03533 30.22609 33072 ft 520 kts 148°
2026-05-06 10:41 27.97637 30.27396 33073 ft 519 kts 148°
2026-05-06 10:42 27.91773 30.32149 33069 ft 519 kts 148°
2026-05-06 10:42 27.85891 30.36910 33070 ft 521 kts 148°
2026-05-06 10:43 27.80000 30.41674 33070 ft 520 kts 148°
2026-05-06 10:44 27.71184 30.48788 33067 ft 520 kts 148°
2026-05-06 10:44 27.65283 30.53543 33066 ft 522 kts 148°
2026-05-06 10:45 27.59405 30.58273 33061 ft 519 kts 148°
2026-05-06 10:45 27.53518 30.63003 33056 ft 520 kts 148°
2026-05-06 10:46 27.47604 30.67749 33043 ft 521 kts 149°
2026-05-06 10:46 27.41700 30.72480 33037 ft 521 kts 149°
2026-05-06 10:47 27.35811 30.77193 33038 ft 521 kts 149°
2026-05-06 10:47 27.29867 30.81943 33048 ft 524 kts 149°
2026-05-06 10:48 27.23960 30.86659 33052 ft 522 kts 149°
2026-05-06 10:48 27.18046 30.91373 33058 ft 522 kts 149°
2026-05-06 10:49 27.12144 30.96071 33063 ft 522 kts 149°
2026-05-06 10:49 27.06176 31.00816 33073 ft 524 kts 149°
2026-05-06 10:50 27.00810 31.06369 33073 ft 533 kts 133°
2026-05-06 10:50 26.96138 31.12804 33068 ft 534 kts 132°
2026-05-06 10:51 26.91484 31.19246 33053 ft 533 kts 132°
2026-05-06 10:51 26.86791 31.25718 33045 ft 533 kts 132°
2026-05-06 10:52 26.82109 31.32156 33042 ft 534 kts 132°
2026-05-06 10:52 26.77435 31.38572 33032 ft 531 kts 132°
2026-05-06 10:53 26.72753 31.44985 33025 ft 533 kts 132°
2026-05-06 10:53 26.68100 31.51348 33027 ft 532 kts 132°
2026-05-06 10:54 26.63405 31.57760 33027 ft 532 kts 133°
2026-05-06 10:54 26.58734 31.64128 33029 ft 532 kts 133°
2026-05-06 10:55 26.54015 31.70552 33013 ft 531 kts 133°
2026-05-06 10:55 26.49332 31.76919 33003 ft 532 kts 133°
2026-05-06 10:56 26.44658 31.83264 33011 ft 533 kts 133°
2026-05-06 10:56 26.39939 31.89661 33013 ft 532 kts 133°
2026-05-06 10:57 26.35228 31.96039 33016 ft 533 kts 133°
2026-05-06 10:57 26.30516 32.02407 33013 ft 533 kts 133°
2026-05-06 10:58 26.25804 32.08769 33013 ft 533 kts 133°
2026-05-06 10:58 26.21117 32.15086 33021 ft 533 kts 133°
2026-05-06 10:59 26.16390 32.21449 33022 ft 533 kts 133°
2026-05-06 10:59 26.11659 32.27809 33019 ft 532 kts 133°
2026-05-06 11:00 26.06950 32.34130 33009 ft 532 kts 133°
2026-05-06 11:00 26.02254 32.40425 33000 ft 531 kts 133°
2026-05-06 11:01 25.97536 32.46740 32999 ft 532 kts 133°
2026-05-06 11:01 25.92801 32.53069 33006 ft 533 kts 134°
2026-05-06 11:02 25.88064 32.59393 32995 ft 532 kts 133°
2026-05-06 11:02 25.83301 32.65742 32986 ft 534 kts 134°
2026-05-06 11:03 25.78571 32.72040 32976 ft 532 kts 134°
2026-05-06 11:03 25.73396 32.77816 32970 ft 523 kts 148°
2026-05-06 11:04 25.67464 32.82341 32979 ft 519 kts 152°
2026-05-06 11:04 25.61453 32.86784 32980 ft 520 kts 152°
2026-05-06 11:05 25.55374 32.91262 33467 ft 529 kts 152°
2026-05-06 11:05 25.52317 32.93515 34361 ft 521 kts 152°
2026-05-06 11:05 25.49341 32.95705 34911 ft 518 kts 152°
2026-05-06 11:06 25.43337 33.00113 34991 ft 514 kts 153°
2026-05-06 11:06 25.37407 33.04461 34986 ft 512 kts 153°
2026-05-06 11:07 25.31463 33.08812 34989 ft 511 kts 153°
2026-05-06 11:07 25.25530 33.13149 34992 ft 510 kts 153°
2026-05-06 11:08 25.19610 33.17473 34992 ft 509 kts 153°
2026-05-06 11:08 25.13716 33.21773 34985 ft 511 kts 153°
2026-05-06 11:09 25.07798 33.26086 34979 ft 508 kts 153°
2026-05-06 11:09 25.01907 33.30374 34979 ft 509 kts 153°
2026-05-06 11:10 24.95985 33.34680 34983 ft 509 kts 153°
2026-05-06 11:10 24.90095 33.38958 34979 ft 508 kts 153°
2026-05-06 11:11 24.84171 33.43255 34985 ft 507 kts 153°
2026-05-06 11:11 24.78286 33.47519 34981 ft 506 kts 153°
2026-05-06 11:12 24.72405 33.51773 34981 ft 509 kts 153°
2026-05-06 11:12 24.66441 33.56084 34979 ft 512 kts 153°
2026-05-06 11:13 24.60490 33.60382 34983 ft 510 kts 153°
2026-05-06 11:13 24.54571 33.64651 34984 ft 509 kts 153°
2026-05-06 11:14 24.48652 33.68915 34969 ft 509 kts 154°
2026-05-06 11:14 24.42756 33.73158 34968 ft 507 kts 154°
2026-05-06 11:15 24.36858 33.77396 34964 ft 507 kts 154°
2026-05-06 11:15 24.30931 33.81651 34957 ft 509 kts 154°
2026-05-06 11:16 24.25041 33.85875 34950 ft 507 kts 154°
2026-05-06 11:16 24.19137 33.90104 34950 ft 508 kts 154°
2026-05-06 11:17 24.13244 33.94320 34949 ft 507 kts 154°
2026-05-06 11:17 24.07331 33.98546 34949 ft 508 kts 154°
2026-05-06 11:18 24.01428 34.02760 34944 ft 507 kts 154°
2026-05-06 11:18 23.95549 34.06953 34943 ft 504 kts 154°
2026-05-06 11:19 23.89636 34.11165 34949 ft 504 kts 154°
2026-05-06 11:19 23.83723 34.15371 34960 ft 506 kts 154°
2026-05-06 11:20 23.77835 34.19574 34961 ft 503 kts 154°
2026-05-06 11:20 23.71999 34.23758 34967 ft 501 kts 154°
2026-05-06 11:21 23.66129 34.27958 34971 ft 504 kts 154°
2026-05-06 11:21 23.60293 34.32131 34981 ft 504 kts 154°
2026-05-06 11:22 23.54447 34.36306 34985 ft 502 kts 154°
2026-05-06 11:22 23.48611 34.40467 34988 ft 504 kts 154°
2026-05-06 11:23 23.42746 34.44647 34992 ft 501 kts 154°
2026-05-06 11:23 23.36924 34.48790 35001 ft 503 kts 154°
2026-05-06 11:24 23.31050 34.52965 35003 ft 501 kts 154°
2026-05-06 11:24 23.25240 34.57092 35004 ft 502 kts 154°
2026-05-06 11:25 23.19388 34.61243 35001 ft 500 kts 154°
2026-05-06 11:25 23.13540 34.65386 34998 ft 504 kts 155°
2026-05-06 11:26 23.07702 34.69520 34976 ft 501 kts 154°
2026-05-06 11:26 23.01875 34.73641 34970 ft 499 kts 155°
2026-05-06 11:27 22.96087 34.77731 34962 ft 496 kts 155°
2026-05-06 11:27 22.90261 34.81841 34966 ft 495 kts 155°
2026-05-06 11:28 22.84473 34.85920 34975 ft 499 kts 155°
2026-05-06 11:28 22.78673 34.90006 34962 ft 495 kts 155°
2026-05-06 11:29 22.72860 34.94094 34966 ft 498 kts 155°
2026-05-06 11:29 22.67067 34.98166 34973 ft 497 kts 155°
2026-05-06 11:30 22.61291 35.02223 34967 ft 494 kts 155°
2026-05-06 11:30 22.55468 35.06304 34974 ft 496 kts 155°
2026-05-06 11:31 22.49722 35.10333 34971 ft 492 kts 155°
2026-05-06 11:31 22.43948 35.14373 34978 ft 493 kts 155°
2026-05-06 11:32 22.38196 35.18395 34978 ft 491 kts 155°
2026-05-06 11:32 22.32480 35.22387 34983 ft 492 kts 155°
2026-05-06 11:33 22.26741 35.26393 34980 ft 488 kts 155°
2026-05-06 11:33 22.20993 35.30399 34998 ft 493 kts 155°
2026-05-06 11:34 22.15259 35.34392 35015 ft 489 kts 155°
2026-05-06 11:34 22.09561 35.38358 35025 ft 488 kts 155°
2026-05-06 11:35 22.03827 35.42341 35029 ft 491 kts 155°
2026-05-06 11:35 21.98119 35.46314 35026 ft 490 kts 155°
2026-05-06 11:36 21.92390 35.50348 35023 ft 491 kts 155°
2026-05-06 11:36 21.86671 35.54372 35030 ft 491 kts 155°
2026-05-06 11:37 21.80939 35.58400 35019 ft 490 kts 155°
2026-05-06 11:37 21.75232 35.62404 34994 ft 493 kts 155°
2026-05-06 11:38 21.69482 35.66436 34968 ft 490 kts 155°
2026-05-06 11:38 21.63799 35.70416 34957 ft 490 kts 155°
2026-05-06 11:39 21.58072 35.74422 34932 ft 491 kts 155°
2026-05-06 11:39 21.52333 35.78433 34936 ft 493 kts 155°
2026-05-06 11:40 21.46582 35.82449 34931 ft 492 kts 155°
2026-05-06 11:40 21.40858 35.86443 34928 ft 492 kts 155°
2026-05-06 11:41 21.35143 35.90425 34920 ft 491 kts 155°
2026-05-06 11:41 21.29413 35.94416 34915 ft 491 kts 155°
2026-05-06 11:42 21.23666 35.98412 34914 ft 493 kts 155°
2026-05-06 11:42 21.17905 36.02416 34916 ft 494 kts 155°
2026-05-06 11:43 21.12163 36.06404 34917 ft 491 kts 155°
2026-05-06 11:43 21.06415 36.10390 34934 ft 492 kts 155°
2026-05-06 11:44 20.97821 36.16345 34940 ft 493 kts 155°
2026-05-06 11:44 20.92076 36.20321 34944 ft 491 kts 155°
2026-05-06 11:45 20.86278 36.24329 34954 ft 492 kts 155°
2026-05-06 11:45 20.80520 36.28308 34951 ft 491 kts 155°
2026-05-06 11:46 20.74549 36.31583 34937 ft 475 kts 168°
2026-05-06 11:46 20.68196 36.32938 34947 ft 459 kts 184°
2026-05-06 11:47 20.61811 36.33035 34946 ft 457 kts 186°
2026-05-06 11:47 20.55463 36.33060 34953 ft 457 kts 186°
2026-05-06 11:48 20.49063 36.33078 34958 ft 456 kts 186°
2026-05-06 11:48 20.42679 36.33090 34962 ft 458 kts 186°
2026-05-06 11:49 20.36292 36.33101 34965 ft 457 kts 186°
2026-05-06 11:49 20.29919 36.33110 34964 ft 459 kts 186°
2026-05-06 11:50 20.23547 36.33120 34969 ft 457 kts 186°
2026-05-06 11:50 20.17178 36.33128 34968 ft 458 kts 186°
2026-05-06 11:51 20.10764 36.33136 34956 ft 458 kts 186°
2026-05-06 11:51 20.04389 36.33144 34958 ft 460 kts 186°
2026-05-06 11:52 19.97993 36.33152 34951 ft 460 kts 186°
2026-05-06 11:52 19.91601 36.33161 34963 ft 459 kts 186°
2026-05-06 11:53 19.85151 36.33169 34986 ft 461 kts 186°
2026-05-06 11:53 19.78753 36.33177 34994 ft 460 kts 186°
2026-05-06 11:54 19.72300 36.33185 34999 ft 461 kts 185°
2026-05-06 11:54 19.65896 36.33194 34996 ft 460 kts 185°
2026-05-06 11:55 19.59484 36.33202 34993 ft 460 kts 185°
2026-05-06 11:55 19.53069 36.33210 34998 ft 460 kts 185°
2026-05-06 11:56 19.46665 36.33218 34996 ft 460 kts 185°
2026-05-06 11:56 19.40269 36.33226 34997 ft 461 kts 185°
2026-05-06 11:57 19.33805 36.33234 34997 ft 461 kts 185°
2026-05-06 11:57 19.27384 36.33242 34994 ft 462 kts 185°
2026-05-06 11:58 19.20952 36.33250 35001 ft 461 kts 185°
2026-05-06 11:58 19.14526 36.33258 35008 ft 462 kts 185°
2026-05-06 11:59 19.08090 36.33267 35012 ft 461 kts 185°
2026-05-06 11:59 19.01666 36.33275 35022 ft 461 kts 185°
2026-05-06 12:00 18.95231 36.33284 35027 ft 460 kts 185°
2026-05-06 12:00 18.88811 36.33291 35033 ft 461 kts 185°
2026-05-06 12:01 18.82325 36.33299 35026 ft 463 kts 185°
2026-05-06 12:01 18.75891 36.33308 35023 ft 462 kts 185°
2026-05-06 12:02 18.69439 36.33316 35008 ft 463 kts 185°
2026-05-06 12:02 18.62979 36.33324 34995 ft 463 kts 185°
2026-05-06 12:03 18.56534 36.33332 34985 ft 463 kts 185°
2026-05-06 12:03 18.50095 36.33340 34971 ft 463 kts 184°
2026-05-06 12:04 18.43633 36.33348 34961 ft 462 kts 184°
2026-05-06 12:04 18.37168 36.33356 34957 ft 464 kts 185°
2026-05-06 12:05 18.30703 36.33364 34953 ft 463 kts 185°
2026-05-06 12:05 18.24241 36.33373 34958 ft 464 kts 184°
2026-05-06 12:06 18.17788 36.33380 34954 ft 464 kts 184°
2026-05-06 12:06 18.11308 36.33389 34948 ft 465 kts 184°
2026-05-06 12:07 18.04815 36.33396 34941 ft 465 kts 184°
2026-05-06 12:07 17.98349 36.33405 34928 ft 466 kts 184°
2026-05-06 12:08 17.91859 36.33413 34937 ft 467 kts 184°
2026-05-06 12:08 17.85303 36.33421 34934 ft 467 kts 184°
2026-05-06 12:09 17.78789 36.33429 34919 ft 468 kts 184°
2026-05-06 12:09 17.72277 36.33437 34918 ft 468 kts 184°
2026-05-06 12:10 17.65770 36.33445 34918 ft 468 kts 184°
2026-05-06 12:10 17.59205 36.33453 34911 ft 468 kts 184°
2026-05-06 12:11 17.52673 36.33462 34910 ft 469 kts 184°
2026-05-06 12:11 17.46175 36.33470 34908 ft 468 kts 184°
2026-05-06 12:12 17.39642 36.33478 34895 ft 469 kts 184°
2026-05-06 12:12 17.33105 36.33486 34890 ft 469 kts 184°
2026-05-06 12:13 17.26522 36.33494 34878 ft 470 kts 184°
2026-05-06 12:13 17.19977 36.33502 34870 ft 470 kts 184°
2026-05-06 12:14 17.13423 36.33510 34865 ft 471 kts 184°
2026-05-06 12:14 17.06869 36.33518 34863 ft 471 kts 184°
2026-05-06 12:15 17.00269 36.33526 34864 ft 472 kts 184°
2026-05-06 12:15 16.93693 36.33535 34849 ft 471 kts 184°
2026-05-06 12:16 16.87126 36.33543 34845 ft 471 kts 184°
2026-05-06 12:16 16.80550 36.33551 34842 ft 473 kts 184°
2026-05-06 12:17 16.73936 36.33559 34840 ft 473 kts 183°
2026-05-06 12:17 16.67348 36.33567 34837 ft 472 kts 183°
2026-05-06 12:18 16.60780 36.33575 34840 ft 473 kts 183°
2026-05-06 12:18 16.54159 36.33584 34840 ft 474 kts 184°
2026-05-06 12:19 16.47532 36.33591 34838 ft 474 kts 184°
2026-05-06 12:19 16.40940 36.33599 34837 ft 474 kts 183°
2026-05-06 12:20 16.34310 36.33608 34833 ft 474 kts 183°
2026-05-06 12:20 16.27710 36.33616 34834 ft 475 kts 183°
2026-05-06 12:21 16.21100 36.33624 34836 ft 476 kts 183°
2026-05-06 12:21 16.14451 36.33632 34841 ft 476 kts 183°
2026-05-06 12:22 16.07824 36.33640 34842 ft 476 kts 183°
2026-05-06 12:22 16.01187 36.33648 34838 ft 476 kts 183°
2026-05-06 12:23 15.94543 36.33656 34830 ft 477 kts 183°
2026-05-06 12:23 15.87849 36.33665 34827 ft 477 kts 183°
2026-05-06 12:24 15.81213 36.33673 34824 ft 477 kts 183°
2026-05-06 12:24 15.74569 36.33681 34829 ft 477 kts 183°
2026-05-06 12:25 15.67925 36.33689 34827 ft 478 kts 183°
2026-05-06 12:25 15.61258 36.33697 34826 ft 478 kts 183°
2026-05-06 12:26 15.54595 36.33705 34830 ft 477 kts 183°
2026-05-06 12:26 15.47907 36.33713 34832 ft 478 kts 183°
2026-05-06 12:27 15.41255 36.33722 34832 ft 478 kts 183°
2026-05-06 12:27 15.34607 36.33424 34833 ft 477 kts 187°
2026-05-06 12:28 15.27981 36.32970 34835 ft 477 kts 186°
2026-05-06 12:28 15.21306 36.32530 34836 ft 477 kts 186°
2026-05-06 12:29 15.14663 36.32104 34836 ft 478 kts 186°
2026-05-06 12:29 15.08005 36.31682 34832 ft 477 kts 186°
2026-05-06 12:30 15.01356 36.31264 34825 ft 479 kts 186°
2026-05-06 12:30 14.94713 36.30848 34813 ft 478 kts 186°
2026-05-06 12:31 14.88021 36.30431 34819 ft 479 kts 186°
2026-05-06 12:31 14.81334 36.30014 34824 ft 479 kts 186°
2026-05-06 12:32 14.74640 36.29597 34829 ft 480 kts 186°
2026-05-06 12:32 14.68000 36.29184 34829 ft 479 kts 186°
2026-05-06 12:33 14.61308 36.28768 34841 ft 480 kts 186°
2026-05-06 12:33 14.54642 36.28355 34835 ft 480 kts 186°
2026-05-06 12:34 14.47971 36.27940 34844 ft 480 kts 186°
2026-05-06 12:34 14.41265 36.27525 34831 ft 480 kts 186°
2026-05-06 12:35 14.34614 36.27112 34838 ft 480 kts 186°